[[{"header":{"parameterUnit":"m.s-1","parameterCategory":1,"la1":30.2991,"la2":30.254,"lo1":-89.0895,"lo2":-89.0444,"dy":0.0017,"dx":0.0017,"nx":28,"ny":28,"refTime":"2025-07-06T21:00:00:Z","depth":0,"parameterNumber":2,"parameterNumberName":"U-component_of_WINDS"},"data":[0,0,0,0,0,0,0,0,0,0,0,0,0,0,0,0,0,0,0,0,0,0,0,0,0,0,0,0,0,0,0,0,0,0,0,0,0,0,0,0,0,0,0,0,0,0,0,0,0,0,0,0,0,0,0,0,0,0,-0.0902,-0.0902,0,-0.0834,-0.0833,-0.0833,-0.082,-0.0821,-0.0821,-0.0822,-0.075,-0.0748,-0.0746,0,0,0,0,0,0,0,0,0,0,0,0,0,-0.1021,-0.1019,-0.0902,-0.0901,-0.0901,-0.0834,-0.0833,-0.0832,-0.082,-0.0821,-0.0821,-0.0822,-0.0751,-0.0748,-0.0745,0,0,0,0,0,0,0,0,0,0,0,0,0,-0.0963,-0.1019,-0.0902,-0.0886,-0.0884,-0.0834,-0.0833,-0.0832,-0.082,-0.0821,-0.0821,-0.0822,-0.0752,-0.0749,-0.0745,-0.0706,0,0,-0.0734,-0.0732,0,0,0,0,0,0,0,0,-0.0966,-0.0959,-0.089,-0.0887,-0.0885,-0.0836,-0.0849,-0.079,-0.082,-0.0844,-0.0822,-0.0823,-0.0778,-0.0773,-0.0758,-0.0702,-0.0699,-0.0734,-0.0731,-0.073,-0.0729,0,0,0,0,0,0,0,-0.0971,-0.0962,-0.0875,-0.0889,-0.0886,-0.0883,-0.0875,-0.0838,-0.0807,-0.0842,-0.0841,-0.0833,-0.0777,-0.0761,-0.0756,-0.0698,-0.0734,-0.073,-0.0728,-0.0727,-0.0609,-0.0608,0,0,0,0,0,0,-0.0978,-0.0965,-0.0877,-0.0873,-0.0929,-0.088,-0.0872,-0.0851,-0.0808,-0.0802,-0.0833,-0.0833,-0.0767,-0.076,-0.0753,-0.0706,-0.073,-0.0726,-0.0724,-0.061,-0.0609,-0.0608,0,0,0,0,0,0,-0.098,-0.097,-0.088,-0.0919,-0.0907,-0.0877,-0.0854,-0.0849,-0.0834,-0.0801,-0.0795,-0.0822,-0.0768,-0.0759,-0.0718,-0.0703,-0.0725,-0.0721,-0.0611,-0.061,-0.0609,-0.0609,0,0,0,0,0,0,-0.0984,-0.0971,-0.0955,-0.0919,-0.0905,-0.0846,-0.0853,-0.0847,-0.0828,-0.0827,-0.0789,-0.0784,-0.0767,-0.0724,-0.0715,-0.0698,-0.0719,-0.0612,-0.0611,-0.0609,-0.061,-0.0608,-0.0606,0,0,0,0,0,-0.0988,-0.0958,-0.0955,-0.0944,-0.0885,-0.0845,-0.0837,-0.082,-0.0826,-0.0811,-0.079,-0.0785,-0.0706,-0.072,-0.0709,-0.0692,-0.0613,-0.0611,-0.0609,-0.0611,-0.0608,-0.0606,0,0,0,0,0,0,-0.0992,-0.0952,-0.0949,-0.0906,-0.0879,-0.0843,-0.0823,-0.0817,-0.0787,-0.0788,-0.0768,-0.0759,-0.072,-0.0702,-0.0718,-0.0653,-0.066,-0.0656,-0.0666,-0.0663,-0.066,-0.0665,-0.0716,0,0,0,0,0,-0.0989,-0.0959,-0.0926,-0.0891,-0.0878,-0.0853,-0.0835,-0.0824,-0.0795,-0.0783,-0.0759,-0.0732,-0.0701,-0.0681,-0.065,-0.0608,-0.06,-0.0591,-0.0589,-0.0587,-0.0584,-0.0561,-0.0557,-0.0601,-0.0601,-0.0601,0,0,-0.098,-0.0955,-0.0937,-0.0892,-0.087,-0.084,-0.0843,-0.0811,-0.0789,-0.0778,-0.0739,-0.0721,-0.0688,-0.0647,-0.0628,-0.0631,-0.057,-0.0584,-0.0583,-0.0581,-0.0558,-0.0554,-0.0551,-0.06,-0.06,-0.06,0,0,-0.0949,-0.0927,-0.0896,-0.0875,-0.0842,-0.0826,-0.0818,-0.0784,-0.0771,-0.0732,-0.0723,-0.0697,-0.0644,-0.0622,-0.0603,-0.0567,-0.0561,-0.0557,-0.0545,-0.0524,-0.052,-0.0517,-0.0505,-0.05,-0.0554,-0.0554,-0.0554,0,-0.0942,-0.0897,-0.0881,-0.085,-0.083,-0.0821,-0.079,-0.0769,-0.0728,-0.0715,-0.0719,-0.0654,-0.0631,-0.0585,-0.0577,-0.0562,-0.0553,-0.0561,-0.0522,-0.0519,-0.0516,-0.0504,-0.0499,-0.0554,-0.0554,-0.0554,-0.0554,0,-0.0891,-0.086,-0.084,-0.0801,-0.078,-0.0749,-0.0728,-0.0708,-0.0699,-0.0683,-0.0644,-0.0616,-0.0581,-0.057,-0.056,-0.0523,-0.0526,-0.0527,-0.0534,-0.0512,-0.05,-0.0495,-0.0553,-0.0554,-0.0554,-0.0554,0,0,-0.0859,-0.0814,-0.0807,-0.079,-0.0754,-0.073,-0.0699,-0.0665,-0.0649,-0.0622,-0.0596,-0.0552,-0.0553,-0.0533,-0.0521,-0.0502,-0.0476,-0.0505,-0.0504,-0.0501,-0.0434,-0.0434,-0.0428,-0.0473,-0.0472,-0.0471,-0.0437,0,-0.0825,-0.077,-0.0755,-0.0708,-0.068,-0.0672,-0.0645,-0.062,-0.0605,-0.0579,-0.0561,-0.0531,-0.0534,-0.0522,-0.0503,-0.0483,-0.0462,-0.0486,-0.0448,-0.0447,-0.0456,-0.0422,-0.0421,-0.039,-0.0432,-0.0431,-0.0431,0,-0.0776,-0.0749,-0.07,-0.0669,-0.0657,-0.0633,-0.0602,-0.0577,-0.055,-0.054,-0.0518,-0.0509,-0.0477,-0.0487,-0.0443,-0.0459,-0.0444,-0.0432,-0.043,-0.0426,-0.0437,-0.0417,-0.038,-0.0375,-0.0423,-0.0424,-0.0424,0,-0.0758,-0.0709,-0.0674,-0.066,-0.0623,-0.0607,-0.0591,-0.0564,-0.0546,-0.0518,-0.0506,-0.0476,-0.0459,-0.0436,-0.0419,-0.0427,-0.0377,-0.0385,-0.0368,-0.0368,-0.0357,-0.0357,-0.0317,-0.0347,-0.0347,-0.0347,-0.0347,0,-0.072,-0.0691,-0.0666,-0.0644,-0.0611,-0.0595,-0.0563,-0.0546,-0.0523,-0.0498,-0.0489,-0.0466,-0.0445,-0.042,-0.0406,-0.0373,-0.0365,-0.0356,-0.0353,-0.0357,-0.0358,-0.0346,-0.0347,-0.0346,-0.0346,-0.0346,-0.0347,0,-0.0695,-0.0677,-0.0638,-0.0607,-0.0599,-0.0576,-0.0549,-0.0528,-0.0513,-0.0482,-0.0474,-0.045,-0.0419,-0.0401,-0.0362,-0.0353,-0.0316,-0.0314,-0.0325,-0.0324,-0.0308,-0.031,-0.0257,-0.025,-0.0285,-0.0285,-0.0285,0,-0.0671,-0.0649,-0.0616,-0.0599,-0.0583,-0.0556,-0.0538,-0.0521,-0.0502,-0.047,-0.0453,-0.0422,-0.0397,-0.0349,-0.0328,-0.0298,-0.0295,-0.0279,-0.029,-0.0296,-0.0295,-0.0297,-0.0295,-0.0277,-0.0276,-0.0276,-0.0276,0,-0.0633,-0.0625,-0.0599,-0.057,-0.0549,-0.0525,-0.0501,-0.0488,-0.0468,-0.0447,-0.0416,-0.0397,-0.0358,-0.0328,-0.0297,-0.028,-0.0275,-0.0273,-0.0267,-0.0271,-0.0279,-0.0275,-0.032,-0.0274,-0.0274,-0.0274,-0.0274,-0.0274,-0.0607,-0.0587,-0.0562,-0.0533,-0.0514,-0.0493,-0.0472,-0.0455,-0.0429,-0.0397,-0.0389,-0.0357,-0.0331,-0.029,-0.0273,-0.0248,-0.025,-0.0242,-0.024,-0.0238,-0.0238,-0.0283,-0.0242,-0.0242,-0.0242,-0.0242,-0.0242,0,-0.0568,-0.0552,-0.0526,-0.0494,-0.0472,-0.047,-0.0444,-0.0426,-0.0398,-0.0375,-0.0351,-0.0316,-0.0287,-0.0265,-0.0236,-0.022,-0.0217,-0.0213,-0.0213,-0.021,-0.0237,-0.0245,-0.0216,-0.0216,-0.0216,-0.0216,-0.0216,-0.0216,-0.0545,-0.0512,-0.0502,-0.0459,-0.0443,-0.0412,-0.0397,-0.0378,-0.036,-0.0322,-0.0298,-0.0284,-0.0262,-0.0231,-0.0205,-0.0199,-0.0189,-0.0185,-0.0179,-0.0205,-0.0208,-0.0211,-0.0218,-0.0183,-0.0183,-0.0154,-0.0154,-0.0153]},{"header":{"parameterUnit":"m.s-1","parameterCategory":1,"la1":30.2991,"la2":30.254,"lo1":-89.0895,"lo2":-89.0444,"dy":0.0017,"dx":0.0017,"nx":28,"ny":28,"refTime":"2025-07-06T21:00:00:Z","depth":0,"parameterNumber":3,"parameterNumberName":"V-component_of_WINDS"},"data":[0,0,0,0,0,0,0,0,0,0,0,0,0,0,0,0,0,0,0,0,0,0,0,0,0,0,0,0,0,0,0,0,0,0,0,0,0,0,0,0,0,0,0,0,0,0,0,0,0,0,0,0,0,0,0,0,0,0,3.237,3.2369,0,3.2261,3.226,3.2259,3.2212,3.2212,3.2213,3.2213,3.2096,3.2093,3.2089,0,0,0,0,0,0,0,0,0,0,0,0,0,3.2533,3.253,3.237,3.2369,3.2368,3.2262,3.226,3.2259,3.2212,3.2212,3.2213,3.2213,3.2097,3.2093,3.2089,0,0,0,0,0,0,0,0,0,0,0,0,0,3.2447,3.2529,3.2371,3.2332,3.2327,3.2262,3.226,3.2258,3.2212,3.2212,3.2213,3.2213,3.2098,3.2093,3.2089,3.2052,0,0,3.2073,3.2071,0,0,0,0,0,0,0,0,3.2452,3.2441,3.2339,3.2334,3.2329,3.2251,3.2274,3.2189,3.2212,3.2256,3.2213,3.2213,3.2147,3.2138,3.2117,3.2046,3.2041,3.2073,3.207,3.2068,3.2066,0,0,0,0,0,0,0,3.2458,3.2445,3.2327,3.2338,3.2332,3.2318,3.2306,3.2258,3.2201,3.2252,3.2248,3.2236,3.2144,3.2122,3.2113,3.204,3.2073,3.2069,3.2066,3.2064,3.1932,3.1932,0,0,0,0,0,0,3.2471,3.245,3.2331,3.2324,3.2393,3.2315,3.2302,3.2276,3.2201,3.219,3.2236,3.2235,3.213,3.2119,3.2109,3.2061,3.2068,3.2063,3.206,3.1933,3.1932,3.1932,0,0,0,0,0,0,3.2474,3.2461,3.2335,3.2386,3.2369,3.2312,3.2283,3.2273,3.2251,3.2189,3.2178,3.2224,3.213,3.2116,3.2067,3.2056,3.2061,3.2056,3.1934,3.1933,3.1932,3.1964,0,0,0,0,0,0,3.2479,3.2462,3.2449,3.2386,3.2367,3.2296,3.2282,3.2271,3.2243,3.224,3.2175,3.2164,3.2129,3.2074,3.2062,3.2049,3.2053,3.1934,3.1933,3.1932,3.1963,3.1964,3.1965,0,0,0,0,0,3.2485,3.2462,3.2449,3.2434,3.2349,3.2296,3.2284,3.2245,3.2242,3.2228,3.2188,3.2166,3.2059,3.207,3.2055,3.2041,3.1935,3.1933,3.1932,3.1963,3.1964,3.1965,0,0,0,0,0,0,3.2523,3.2453,3.2438,3.2393,3.2351,3.2288,3.2268,3.2248,3.2204,3.2203,3.2155,3.214,3.2094,3.2062,3.2075,3.2001,3.1995,3.1991,3.2023,3.2024,3.2025,3.2033,3.2048,0,0,0,0,0,3.2526,3.249,3.243,3.2397,3.2376,3.2326,3.2301,3.2275,3.2228,3.221,3.2167,3.2121,3.2077,3.2048,3.2004,3.1959,3.1943,3.1942,3.1942,3.1943,3.194,3.1912,3.1911,3.1928,3.1928,3.1928,0,0,3.2532,3.249,3.2469,3.2403,3.2367,3.2329,3.2311,3.2272,3.2243,3.2203,3.2154,3.2121,3.2066,3.2018,3.1995,3.199,3.1932,3.1942,3.1943,3.1939,3.1911,3.1909,3.1908,3.1927,3.1927,3.1927,0,0,3.2524,3.2489,3.2457,3.2421,3.2368,3.2334,3.2327,3.2267,3.2243,3.2194,3.2163,3.2127,3.2052,3.2014,3.1985,3.1962,3.194,3.1949,3.1952,3.1926,3.1924,3.1923,3.1914,3.1911,3.1946,3.1946,3.1946,0,3.2538,3.2481,3.2442,3.2405,3.2375,3.234,3.2306,3.2273,3.2207,3.2187,3.2183,3.2088,3.2049,3.1991,3.1985,3.1963,3.1952,3.1956,3.1928,3.1926,3.1924,3.1915,3.1911,3.1947,3.1947,3.1947,3.1947,0,3.2501,3.2461,3.2441,3.2381,3.2349,3.2313,3.2267,3.224,3.2216,3.2183,3.2131,3.2083,3.2029,3.2013,3.1989,3.1951,3.195,3.1938,3.1931,3.1925,3.1915,3.1911,3.1949,3.1949,3.1948,3.1948,0,0,3.2513,3.2431,3.2424,3.2396,3.2334,3.2302,3.2263,3.2212,3.2188,3.2144,3.211,3.2047,3.2035,3.2003,3.1974,3.1951,3.1934,3.1941,3.1939,3.194,3.1888,3.1897,3.1894,3.1919,3.1918,3.1918,3.1892,0,3.2496,3.2428,3.2391,3.2338,3.23,3.2265,3.2232,3.2189,3.2157,3.2118,3.2082,3.2038,3.2026,3.2006,3.1982,3.1941,3.1923,3.1943,3.1885,3.1883,3.1899,3.1889,3.1898,3.1876,3.1888,3.1887,3.1887,0,3.2467,3.2424,3.2368,3.2309,3.2292,3.2263,3.2212,3.2177,3.2127,3.2104,3.2068,3.2039,3.1996,3.1993,3.1931,3.1946,3.192,3.1896,3.1894,3.1887,3.1885,3.188,3.1869,3.1865,3.1881,3.1881,3.1882,0,3.2481,3.2409,3.2366,3.2342,3.2273,3.2253,3.2223,3.2174,3.2145,3.2099,3.208,3.2029,3.2002,3.1962,3.192,3.1922,3.1862,3.1856,3.1841,3.1842,3.183,3.1831,3.1813,3.1814,3.1815,3.1815,3.1815,0,3.2465,3.2431,3.2371,3.2344,3.2305,3.2262,3.2224,3.2191,3.2147,3.2112,3.2078,3.2045,3.1992,3.1952,3.1919,3.1872,3.186,3.184,3.1831,3.1842,3.1845,3.1824,3.1824,3.1814,3.1814,3.1814,3.1814,0,3.2474,3.2432,3.2383,3.2321,3.2305,3.2279,3.2225,3.2197,3.2163,3.2119,3.2106,3.2051,3.2003,3.1957,3.1892,3.1869,3.1822,3.1811,3.1839,3.1834,3.1822,3.1823,3.1789,3.1782,3.179,3.179,3.179,0,3.2466,3.244,3.2376,3.2351,3.2322,3.2282,3.2252,3.2208,3.2178,3.2119,3.2097,3.2046,3.2003,3.1927,3.188,3.183,3.1817,3.1809,3.1809,3.1821,3.1815,3.1817,3.1814,3.1809,3.1809,3.1809,3.181,0,3.2457,3.2438,3.2397,3.2349,3.2315,3.2274,3.2233,3.2213,3.2161,3.2129,3.2079,3.2046,3.198,3.1929,3.1873,3.184,3.1815,3.181,3.1804,3.1814,3.1831,3.1821,3.184,3.1811,3.1811,3.181,3.181,3.181,3.2457,3.2431,3.2382,3.2338,3.2302,3.2264,3.2234,3.2196,3.2155,3.2098,3.2074,3.2024,3.1973,3.1896,3.1863,3.1821,3.1816,3.1807,3.1805,3.1803,3.1805,3.1839,3.1811,3.1811,3.1811,3.1811,3.1811,0,3.2445,3.2412,3.2371,3.2315,3.2279,3.2261,3.2213,3.2184,3.2141,3.2096,3.2055,3.1997,3.1948,3.1897,3.1845,3.1821,3.1808,3.1808,3.1809,3.1802,3.1813,3.1824,3.182,3.182,3.182,3.182,3.182,3.182,3.2435,3.2391,3.2365,3.2302,3.2268,3.222,3.2194,3.2158,3.2122,3.206,3.2019,3.1987,3.1939,3.1883,3.1836,3.1822,3.1804,3.1807,3.179,3.1801,3.1801,3.1801,3.181,3.1804,3.1804,3.1782,3.1782,3.1781]}]]